Location: Unspecified
(0.0000°N, 0.0000°E)
Time: 11:34:53
(UTC+02:00)

Cosmos 773 Rocket - Visible Passes

Search period start: 17 April 2014 00:00
Search period end: 27 April 2014 00:00
Orbit: 746 x 779 km, 74.1° (Epoch: 16 April)

Date Brightness Start Highest point End Pass type
(mag) Time Alt. Az. Time Alt. Az. Time Alt. Az.
17 Apr 5.7 06:06:30 10° NNE 06:11:08 32° ENE 06:15:45 10° SE visible
18 Apr 6.8 05:29:36 10° NE 05:32:31 15° ENE 05:35:26 10° ESE visible
18 Apr 4.7 07:09:37 10° NW 07:14:10 31° WSW 07:18:43 10° SSW visible
19 Apr 3.9 06:30:24 10° NNW 06:35:35 67° WSW 06:40:45 10° S visible
20 Apr 4.5 05:51:52 10° N 05:56:59 56° ENE 06:02:04 10° SSE visible
21 Apr 6.0 07:03:27 10° SW 07:03:27 10° SW 07:03:28 10° SW visible
